Tracking 19636 objects as of 24-May-2019
HD Live streaming from Space Station
objects crossing your sky now

SL-3 R/B

Track SL-3 R/B now!
10-day predictions
SL-3 R/B is classified as:


NORAD ID: 13819
Int'l Code: 1983-010B
Perigee: 503.8 km
Apogee: 549.1 km
Inclination: 81.1 °
Period: 95.0 minutes
Semi major axis: 6897 km
RCS: 6.0393 m2 (large)
Launch date: February 16, 1983
Source: Commonwealth of Independent States (former USSR) (CIS)
Launch site: PLESETSK MISSILE AND SPACE COMPLEX (PKMTR)

Note: This is a ROCKET BODY
aabbcc
Your satellite tracking list
Your tracking list is empty




NASA's NSSDC Master Catalog

Two Line Element Set (TLE):
1 13819U 83010B   19143.30527917  .00000693  00000-0  34726-4 0  9990
2 13819  81.1174  56.1843 0032885 144.7001 215.6414 15.15550123980509
Source of the keplerian elements: AFSPC